Showing default

PRATHAM, 41783

Orbit data source: Space-Track

PRATHAM, 41783 is a payload satellite owned by IITB (IN) in SSO that was launched on Mon, 26 Sep 2016 UTC via a PSLV launch vehicle from the Sirharikota (SRI). Payload-class satellites include a variety of spacecraft equipped with specific instruments for various scientific and technological missions. These include communications satellites like Starlink; space stations such as the ISS; scientific satellites like the Hubble; Earth observation satellites from companies like Planet Labs, Umbra, and HawkEye 360; GPS; miniature CubeSats for education and research; and military/defense satellites.

Loading next visibility...
Identifier
41783, 2016-059A
Orbit
SSO
Last TLE update
7 hours ago
Origin
Manufacturer
IITB
Mission
Non-operational Amateur Science
Bus & Motor
PRATHAM, Unknown motor
Mass
10 kg wet, 10 kg dry
Launch date (UTC)
2016-09-26 (9 years ago)
Launch vehicle
PSLV
Launch site
Sirharikota (SRI)
Object type
Payload
Rocket body
Debris
Shape & HBR
Box, 0.466 m
Radar Cross Section
0.251 m², Small (<0.1 m²)

Expand to show TLE details & history

TLE from 7 hours ago
0 PRATHAM
1 41783U 16059A   25183.57388685  .00000491  00000-0  96641-4 0  9997
2 41783  97.8233 191.2002 0030243 251.0090 108.7837 14.66444768468261
Epoch: 2025-07-02T13:46Z
TLE epoch observation values (Epoch: 2025-07-02T13:46:23.823Z)
Latitude
-0.00005°
Longitude
63.7479°
Altitude
682.371 km
Speed
7.512 km/s
True Right ascension
12h 44m 48s
True Declination
0° 00' 00"
Sunlit
Object was in daylight at epoch
Visualization orbit readout
Latitude
81.13452°
Longitude
2.84303°
Altitude
706.417 km
Speed
7.499 km/s
Apparent Right ascension
20h 22m 53s
Apparent Declination
37° 22' 27"
Sunlit
Object is in daylight
Visualization observer readout
Local Sidereal Time
08:26:58
Azimuth
0.832° NNE
Elevation
-12.704°
Doppler factor
1
Orbital elements
Apogee altitude
690.81 km
Perigee altitude
648.182 km
Semi-major axis
7,047.633 km
Eccentricity
0.00302
Inclination
97.8233°
RAAN
191.2002°
Arg. of periapsis
251.009°
True anomaly
Unknown
Mean anomaly
108.7837°
Eccentric anomaly
Unknown
Mean motion
3.66841 °/min
Orbital period
98.14 mins
BSTAR
0.000096641
Loading maneuver chart data...
Loading SW <> Apogee altitude chart data...
Loading historical data...
Loading historical data...
Loading historical data...
Loading historical data...
Loading historical data...
Loading historical data...
Loading historical data...

PRATHAM Visibility forecast

Observer location: undefined°, undefined°

Span
Click to sort rows by Start time (UTC) header in descending order
Start Az.
Max El. time (UTC)
Max El. Az.
Max El.
End time (UTC)
End Az.
7 mins2025-07-02 23:43:53.951Z126.864° SE2025-07-02 23:47:53.951Z64.241° ENE25.847°2025-07-02 23:50:53.951Z15.951° NNE
6 mins2025-07-03 01:21:53.951Z215.287° SW2025-07-03 01:24:53.951Z266.934° W24.621°2025-07-03 01:27:53.951Z315.943° NNW
7 mins2025-07-03 13:16:53.951Z17.844° NNE2025-07-03 13:19:53.951Z54.908° ENE42.957°2025-07-03 13:23:53.951Z186.209° SSW
|